Location: L�tisburg
(47.3947°N, 9.0820°E)
Time: 10:01:29
(UTC+00:00)

Okean-O - Pass Details

Date: 03 March 2021
Orbit: 638 x 640 km, 98.2° (Epoch: 11 April)

Event Time Altitude Azimuth Distance (km) Brightness Sun altitude
Rises 18:21:35 0° 175° (S) 2,933 5.9 -12.6°
Reaches altitude 10° 18:23:48 10° 179° (S) 2,028 5.1 -13.0°
Maximum altitude 18:28:10 58° 259° (W) 748 3.3 -13.7°
Drops below altitude 10° 18:32:34 10° 339° (NNW) 2,044 5.6 -14.4°
Sets 18:34:49 0° 343° (NNW) 2,958 6.4 -14.8°
